CW9119 Weather Reports


Display with metric or nautical units.
time (UTC)temp
F
wind
direction
speed
MPH
gust
MPH
rain 1hr
in
rain 24hr
in
rain mn
in
humidity
%
barometer
mb
20220126112108 30 269 1.0 5.0 0.01 0.01 0.01 94 1023.6
20220126111108 30 269 1.0 5.0 0.01 0.01 0.01 95 1023.6
20220126110113 30 269 2.0 6.0 0.01 0.01 0.01 95 1023.9
20220126105113 30 269 1.0 6.0 0.01 0.01 0.01 95 1023.9
20220126100113 30 266 1.0 5.0 0.00 0.00 0.00 95 1024.2
20220126095113 31 265 2.0 6.0 0.00 0.01 0.00 95 1024.3
20220126092112 30 266 0.0 0.0 0.00 0.01 0.00 95 1024.2
20220126085112 30 266 0.0 1.0 0.00 0.01 0.00 95 1024.3
20220126083112 30 264 3.0 10.0 0.00 0.01 0.00 95 1024.4
20220126080112 30 286 3.0 7.0 0.00 0.01 0.00 95 1024.4
20220126075112 30 290 1.0 5.0 0.00 0.01 0.00 95 1024.3
20220126074112 30 289 0.0 2.0 0.00 0.01 0.00 95 1024.3
20220126062111 30 291 2.0 8.0 0.00 0.01 0.00 95 1024.1
20220126061111 30 294 0.0 0.0 0.00 0.01 0.00 95 1024.1
20220126052111 30 295 1.0 5.0 0.00 0.02 0.00 95 1024.3
20220126050111 30 295 0.0 0.0 0.00 0.02 0.00 95 1024.6
20220126044110 30 295 0.0 0.0 0.00 0.02 0.00 95 1024.7
20220126042110 30 295 0.0 6.0 0.00 0.02 0.00 95 1024.6
20220126032110 30 296 1.0 6.0 0.00 0.02 0.00 95 1024.7
20220126023109 30 294 0.0 2.0 0.00 0.02 0.00 95 1025.0
20220126022109 30 294 1.0 6.0 0.00 0.02 0.00 95 1024.9
20220126014109 30 300 2.0 6.0 0.00 0.02 0.00 94 1025.0
20220126012109 30 300 0.0 0.0 0.00 0.02 0.00 94 1025.3
20220126010109 30 300 0.0 1.0 0.00 0.02 0.00 94 1025.3
20220125235108 31 300 0.0 1.0 0.00 0.03 0.00 94 1025.6
20220125233108 31 300 0.0 0.0 0.00 0.03 0.00 94 1025.7
20220125232108 31 300 0.0 0.0 0.00 0.03 0.00 94 1025.8
20220125231108 31 300 0.0 0.0 0.00 0.03 0.00 94 1025.7
20220125230108 31 300 0.0 5.0 0.00 0.03 0.00 94 1025.8
20220125225112 31 309 0.0 5.0 0.00 0.03 0.03 94 1025.8
20220125221112 31 304 0.0 2.0 0.00 0.03 0.03 94 1025.9
20220125220112 31 304 0.0 1.0 0.00 0.03 0.03 94 1025.9
20220125215112 31 304 0.0 2.0 0.00 0.03 0.03 94 1025.9
20220125213112 31 304 0.0 0.0 0.00 0.03 0.03 94 1026.1
20220125212112 31 304 0.0 5.0 0.00 0.03 0.03 94 1026.2
20220125203112 31 355 0.0 5.0 0.00 0.03 0.03 93 1026.2
20220125201112 31 355 0.0 0.0 0.00 0.03 0.03 92 1026.5
20220125200111 31 355 0.0 1.0 0.00 0.03 0.03 92 1026.3
20220125195111 31 355 0.0 0.0 0.00 0.03 0.03 92 1026.3
20220125193111 31 355 0.0 1.0 0.00 0.03 0.03 92 1026.3
20220125192111 31 355 0.0 0.0 0.00 0.03 0.03 92 1026.4
20220125191111 31 355 0.0 0.0 0.00 0.03 0.03 92 1026.3
20220125190111 31 355 0.0 2.0 0.00 0.03 0.03 92 1026.3
20220125184111 31 18 0.0 0.0 0.00 0.03 0.03 92 1026.3
20220125183111 31 18 0.0 0.0 0.00 0.03 0.03 92 1026.4
20220125182111 31 18 0.0 0.0 0.00 0.03 0.03 92 1026.4
20220125175110 31 45 0.0 2.0 0.00 0.03 0.03 92 1026.2
20220125174110 31 46 0.0 0.0 0.00 0.03 0.03 92 1026.2
20220125172110 31 46 3.0 11.0 0.00 0.03 0.03 93 1026.2
20220125164110 31 315 0.0 2.0 0.00 0.03 0.03 93 1026.1
20220125162110 31 305 1.0 7.0 0.00 0.03 0.03 93 1026.1
20220125160110 31 305 3.0 8.0 0.00 0.03 0.03 93 1025.9
20220125152109 31 355 2.0 8.0 0.00 0.03 0.03 92 1025.6
20220125140112 32 301 4.0 8.0 0.00 0.03 0.03 91 1025.3
20220125135112 33 5 3.0 8.0 0.00 0.03 0.03 91 1025.4
20220125134112 33 360 0.0 1.0 0.00 0.03 0.03 92 1025.3
20220125133112 33 257 3.0 8.0 0.00 0.03 0.03 92 1025.2
20220125131112 34 35 2.0 8.0 0.00 0.03 0.03 92 1025.6
20220125125112 34 290 2.0 7.0 0.00 0.03 0.03 92 1025.7
20220125124112 34 279 1.0 5.0 0.00 0.03 0.03 92 1025.8
20220125122112 34 302 2.0 13.0 0.00 0.03 0.03 93 1026.2
20220125114111 34 338 3.0 10.0 0.00 0.03 0.03 94 1026.4